This is the latest recevied weather packets stored in our database for station/object NA9VY-8. If no packets are shown the sender has not sent any weather packets the latest 10 day(s).
| Time | Temp. | Humidity | Pressure | Rain* | Wind** | Luminosity | Snow |
|---|---|---|---|---|---|---|---|
| 1777577827 | 16.11° C | 45% | 1020.5 hPa | 0 mm | - | 163 W/m² | - |
| 1777577522 | 16.11° C | 43% | 1020.5 hPa | 0 mm | - | 166 W/m² | - |
| 1777577219 | 16.67° C | 43% | 1020.5 hPa | 0 mm | - | 663 W/m² | - |
| 1777576915 | 16.67° C | 44% | 1020.8 hPa | 0 mm | - | 696 W/m² | - |
| 1777576610 | 16.11° C | 44% | 1020.9 hPa | 0 mm | - | 160 W/m² | - |
| 1777576306 | 15° C | 45% | 1020.9 hPa | 0 mm | - | 438 W/m² | - |
| 1777576003 | 15.56° C | 47% | 1020.9 hPa | 0 mm | - | 676 W/m² | - |
| 1777575699 | 15° C | 43% | 1020.9 hPa | 0 mm | - | 705 W/m² | - |
| 1777575394 | 15° C | 46% | 1021 hPa | 0 mm | - | 702 W/m² | - |
| 1777575091 | 15° C | 46% | 1020.8 hPa | 0 mm | - | 705 W/m² | - |
| 1777574786 | 15° C | 46% | 1020.9 hPa | 0 mm | - | 395 W/m² | - |
| 1777574485 | 15° C | 44% | 1021 hPa | 0 mm | - | 662 W/m² | - |
| 1777574181 | 15° C | 44% | 1021.2 hPa | 0 mm | - | 510 W/m² | - |
| 1777573875 | 13.89° C | 44% | 1021.4 hPa | 0 mm | - | 676 W/m² | - |
| 1777573571 | 14.44° C | 46% | 1021.4 hPa | 0 mm | - | 680 W/m² | - |
| 1777573267 | 14.44° C | 49% | 1021.5 hPa | 0 mm | - | 666 W/m² | - |
| 1777572963 | 15° C | 45% | 1021.5 hPa | 0 mm | - | 650 W/m² | - |
| 1777572660 | 14.44° C | 47% | 1021.6 hPa | 0 mm | - | 637 W/m² | - |
| 1777572359 | 14.44° C | 48% | 1021.7 hPa | 0 mm | - | 81 W/m² | - |
| 1777572056 | 15° C | 45% | 1021.8 hPa | 0 mm | - | 72 W/m² | - |
| 1777571756 | 14.44° C | 46% | 1021.7 hPa | 0 mm | - | 71 W/m² | - |
| 1777571454 | 14.44° C | 47% | 1021.9 hPa | 0 mm | - | 77 W/m² | - |
| 1777571149 | 14.44° C | 42% | 1022.1 hPa | 0 mm | - | 71 W/m² | - |
| 1777570845 | 15° C | 44% | 1022 hPa | 0 mm | - | 69 W/m² | - |
| 1777570541 | 14.44° C | 44% | 1022 hPa | 0 mm | - | 458 W/m² | - |
* Rain latest hour (hover to see other rain measurements)
** Current wind speed in m/s (hover to see current wind gust speed)